SCP
0 0 0 0 0 0 0 0 0 0 0 0 0 0 0 0 0 0 0 0 0 0 0 0 0 0 0 0 0 0 0 0 0 0 0 0 0 0 0 0 0 0 0 0 0 0 0 0 0
0 0 0 0 0 0 0 0 0 0 0 0 0 0 0 0 0 0 0 0 0 0 0 0 0 0 0 0 0 0 0 0 0 0 0 0 0 0 0 0 0 0 0 0 0 0 0 0 0
0 0 0 0 0 0 0 0 0 0 0 0 0 0 0 0 0 0 0 0 0 0 0 0 0 0 0 0 0 0 0 0 0 0 0 0 0 0 0 0 0 0 0 0 0 0 0 0 0
0 0 0 0 0 0 0 0 0 0 0 0 0 0 0 0 0 0 0 0 0 0 0 0 0 0 0 0 0 0 0 0 0 0 0 0 0 0 0 0 0 0 0 0 0 0 0 0 0
0 0 0 0 0 0 0 0 0 0 0 0 0 0 0 0 0 0 0 0 0 0 0 0 0 0 0 0 0 0 0 0 0 0 0 0 0 0 0 0 0 0 0 0 0 0 0 0 0
0 0 0 0 0 0 0 0 0 0 0 0 0 0 0 0 0 0 0 0 0 0 0 0 0 0 0 0 0 0 0 0 0 0 0 0 0 0 0 0 0 0 0 0 0 0 0 0 0
0 0 0 0 0 0 0 0 0 0 0 0 0 0 0 0 0 0 0 0 0 0 0 0 0 0 0 0 0 0 0 0 0 0 0 0 0 0 0 0 0 0 0 0 0 0 0 0 0
0 0 0 0 0 0 0 0 0 0 0 0 0 0 0 0 0 0 0 0 0 0 0 0 0 0 0 0 0 0 0 0 0 0 0 0 0 0 0 0 0 0 0 0 0 0 0 0 0
0 0 0 0 0 0 0 0 0 0 0 0 0 0 0 0 0 0 0 0 0 0 0 0 0 0 -0 -0 0 0 0 0 0 0 0 0 0 0 0 0 0 0 0 0 0 0 0 0 0
0 0 0 0 0 0 0 0 0 0 0 0 0 0 0 0 0 0 0 0 0 0 0 0 0 0 -0 -0 -0 -0 0 0 0 0 0 0 0 0 0 0 0 0 0 0 0 0 0 0 0
0 0 0 0 0 0 0 0 0 0 0 0 0 0 0 0 0 0 0 0 0 0 0 0 0 0 0 -0 -0 0 0 0 0 0 0 0 0 0 0 0 0 0 0 0 0 0 0 0 0
0 0 0 0 0 0 0 0 0 0 0 0 0 0 0 0 0 0 0 0 0 0 0 0 0 0 0 0 0 0 0 0 0 0 0 0 0 0 0 0 0 0 0 0 0 0 0 0 0
0 0 0 0 0 0 0 0 0 0 0 0 0 0 0 0 0 0 0 0 0 0 0 0 0 0 0 0 0 0 0 0 0 0 0 0 0 0 0 0 0 0 0 0 0 0 0 0 0
0 0 0 0 0 0 0 0 0 0 0 0 0 0 0 0 0 0 0 0 0 0 0 0 0 0 0 0 0 0 0 0 0 0 0 0 0 0 0 0 0 0 0 0 0 0 0 0 0
0 0 0 0 0 0 0 0 0 0 0 0 0 0 0 0 0 0 0 0 0 0 0 0 0 0 0 0 0 0 0 0 0 0 0 0 0 0 0 0 0 0 0 0 0 0 0 0 0
0 0 0 0 0 0 0 0 0 0 0 0 0 0 0 0 0 0 0 0 0 0 0 0 0 0 0 0 0 0 0 0 0 0 0 0 0 0 0 0 0 0 0 0 0 0 0 0 0
0 0 0 0 0 0 0 0 0 0 0 0 0 0 0 0 0 0 0 0 0 0 0 0 0 0 0 0 0 0 0 0 0 0 0 0 0 0 0 0 0 0 0 0 0 0 0 0 0
0 0 0 0 0 0 0 0 0 0 0 0 0 0 0 0 0 0 0 0 0 0 0 0 0 0 0 0 0 0 0 0 0 0 0 0 0 0 0 0 0 0 0 0 0 0 0 0 0
0 0 0 0 0 0 0 0 0 0 0 0 0 0 0 0 0 0 0 0 0 0 0 0 0 0 0 0 0 0 0 0 0 0 0 0 0 0 0 0 0 0 0 0 0 0 0 0 0
0 0 0 0 0 0 0 0 0 0 0 0 0 0 0 0 0 0 0 0 0 0 0 0 0 0 0 0 0 0 0 0 0 0 0 0 0 0 0 0 0 0 0 0 0 0 0 0 0
0 0 0 0 0 0 0 0 0 0 0 0 0 0 0 0 0 0 0 0 0 0 0 0 0 0 0 0 0 0 0 0 0 0 0 0 0 0 0 0 0 0 0 0 0 0 0 0 0
0 0 0 0 0 0 0 0 0 0 0 0 0 0 0 0 0 0 0 0 0 0 0 0 0 0 0 0 0 0 0 0 0 0 0 0 0 0 0 0 0 0 0 0 0 0 0 0 0
0 0 0 0 0 0 0 0 0 0 0 -0 0 0 0 0 0 0 0 0 0 0 0 0 0 0 0 0 0 0 0 0 0 0 0 0 0 0 0 0 0 0 0 0 0 0 0 0 0
0 0 0 0 0 0 0 0 0 0 0 -0 -0 0 0 0 0 0 0 0 0 0 0 0 0 0 0 0 0 0 0 0 0 0 0 0 0 0 0 0 0 0 0 0 0 0 0 0 0
0 0 0 0 0 0 0 0 0 0 0 0 -0 0 0 0 0 0 0 0 0 0 0 0 0 0 0 0 0 0 0 0 0 0 0 0 0 0 0 0 0 0 0 0 0 0 0 0 0
0 0 0 0 0 0 0 0 0 0 0 0 0 0 0 0 0 0 0 0 0 0 0 0 0 0 0 0 0 0 0 0 0 0 0 0 0 0 0 0 0 0 0 0 0 0 0 0 0
0 0 0 0 0 0 0 0 0 0 0 0 0 0 0 0 0 0 0 0 0 0 0 0 0 0 0 0 0 0 0 0 0 0 0 0 0 0 0 0 0 0 0 0 0 0 0 0 0
0 0 0 0 0 0 0 0 0 0 0 0 0 0 0 0 0 0 0 0 0 0 0 0 0 -0 0 0 0 0 0 0 0 0 0 0 0 0 0 0 0 0 0 0 0 0 0 0 0
0 0 0 0 0 0 0 0 0 0 0 0 0 0 0 0 0 0 0 0 0 0 0 0 -0 -0 -0 0 0 0 0 0 0 0 0 0 0 0 0 0 0 0 0 0 0 0 0 0 0
0 0 0 0 0 0 0 0 0 0 0 0 0 0 0 0 0 0 0 0 0 0 0 0 -0 -0 -0 0 0 0 0 0 0 0 0 0 0 0 0 0 0 0 0 0 0 0 0 0 0
Wind_Speed
8 6 3 3 4 3 1 2 1 2 3 4 4 3 3 5 5 5 5 5 5 6 5 6 3 2 2 1 1 1 2 2 3 3 3 4 4 4 5 4 4 4 4 4 3 3 2 2 1
7 5 3 4 3 2 2 2 3 3 4 3 3 3 3 6 6 6 5 5 5 6 5 4 4 2 2 2 1 1 2 3 4 4 4 4 5 5 5 5 6 6 6 5 5 4 4 3 3
7 3 3 3 2 0 3 3 4 5 3 1 2 3 4 5 4 5 6 6 6 6 5 6 4 3 3 2 2 2 2 2 4 5 5 5 5 5 6 7 7 7 7 6 6 6 5 5 4
4 4 4 4 2 1 1 4 4 5 3 2 2 5 5 5 3 6 7 7 6 6 4 6 4 4 3 3 3 3 2 2 3 4 5 5 5 5 6 7 8 8 8 8 8 8 7 6 5
3 4 4 3 2 2 2 3 2 2 3 3 2 5 6 5 6 8 7 6 6 5 4 5 5 4 4 3 3 3 3 3 3 3 4 5 5 5 5 6 7 8 8 9 9 9 8 7 7
3 4 4 2 3 3 3 3 3 2 4 4 3 5 6 6 7 7 7 5 5 5 4 5 6 5 5 4 4 4 4 4 4 4 4 5 5 5 5 6 7 7 7 8 9 9 8 8 7
4 3 3 2 2 3 3 3 3 3 3 3 2 4 7 7 7 6 6 5 5 4 4 3 3 3 4 4 5 5 5 5 4 4 4 4 4 4 5 5 5 6 6 7 7 8 8 8 7
3 3 3 2 2 3 4 4 2 2 3 4 2 2 5 9 9 7 6 5 4 4 3 3 2 3 3 2 5 5 5 5 5 4 4 4 4 5 4 6 4 5 6 6 6 6 7 6 7
4 5 3 2 2 3 5 5 4 1 4 4 2 2 6 11 10 8 6 5 4 3 2 2 2 2 3 3 3 2 2 2 4 3 2 5 5 4 4 2 2 4 5 5 5 5 6 6 7
5 4 1 1 1 2 5 5 5 5 5 5 5 6 8 10 10 8 6 5 3 2 1 1 2 2 3 3 3 3 3 3 4 4 4 4 4 4 5 1 3 4 4 5 5 6 6 7 5
6 4 1 2 1 2 4 4 5 5 4 4 6 10 11 10 9 7 5 3 2 1 1 1 2 2 3 3 3 3 3 3 4 5 4 4 4 3 3 3 2 3 5 4 4 6 5 4 4
5 3 2 1 2 3 4 4 5 6 1 2 5 9 12 11 9 7 5 4 3 2 0 1 2 3 3 4 3 3 3 3 3 4 6 4 3 4 3 3 3 3 2 3 4 3 4 5 5
7 3 3 2 4 4 4 5 4 5 4 5 7 10 11 10 8 7 5 4 3 2 1 1 3 4 4 3 3 3 3 4 4 4 5 5 4 4 4 3 2 4 3 3 3 4 4 5 5
4 3 3 3 4 4 5 5 5 5 6 8 10 10 10 9 9 7 7 5 4 3 2 0 2 3 4 3 3 3 4 3 4 4 5 5 4 4 4 4 3 4 4 4 4 5 4 4 4
4 4 4 5 5 4 5 6 7 5 8 9 10 10 9 9 9 8 6 5 4 3 2 0 2 3 4 4 4 3 3 4 4 4 5 5 5 5 5 4 4 4 4 5 4 5 4 4 4
6 6 5 5 5 4 6 5 3 5 9 9 9 9 9 9 9 7 6 5 4 3 1 0 1 3 3 3 4 3 3 4 4 4 4 6 6 6 5 4 4 4 4 4 3 4 4 4 4
7 7 5 4 5 5 7 5 3 5 8 9 9 9 9 9 9 7 6 5 4 3 2 1 1 2 3 3 3 3 3 3 4 4 4 5 6 6 5 4 4 5 4 4 4 3 4 4 3
7 6 4 3 4 6 8 7 3 5 7 8 8 9 9 9 8 7 6 5 4 4 2 1 0 2 2 2 3 2 3 3 3 3 4 5 5 6 5 4 5 5 3 3 4 4 3 4 3
3 5 5 2 2 6 8 8 6 5 8 9 9 9 9 8 7 6 6 6 5 4 3 1 1 1 1 2 3 3 3 3 3 4 5 5 5 6 5 5 5 4 4 4 4 4 4 3 3
6 6 5 1 1 5 7 9 7 6 8 8 8 8 9 8 8 8 7 7 6 4 3 2 1 1 2 2 3 3 4 4 4 4 4 5 5 5 5 5 4 3 3 4 4 3 3 3 2
8 7 4 3 2 4 6 8 6 5 6 6 7 7 7 8 8 9 8 7 6 4 3 2 0 0 1 2 2 3 2 3 2 3 3 5 5 5 5 5 5 4 4 3 4 4 4 3 2
6 3 4 5 6 3 3 6 4 3 6 7 7 8 8 8 8 8 8 7 6 5 3 2 1 1 0 2 2 4 4 4 5 4 4 5 4 5 4 5 5 4 4 4 4 3 3 4 3
1 1 2 4 6 6 5 7 2 3 5 5 6 7 8 8 8 8 8 7 6 5 4 2 1 1 0 2 2 4 4 4 3 4 5 5 4 4 4 4 4 4 3 3 4 3 4 3 3
5 5 4 4 5 7 2 6 3 2 1 2 4 6 7 8 8 8 7 7 6 5 4 3 2 1 1 2 3 3 4 4 5 5 5 4 3 3 4 4 4 4 3 3 3 3 4 3 3
7 6 4 5 4 2 1 6 4 2 0 2 2 4 6 8 8 9 9 8 7 6 5 4 4 3 2 3 3 3 3 4 4 5 4 5 4 4 5 5 4 4 4 3 3 3 3 3 4
6 7 5 4 3 2 4 6 1 1 1 3 3 3 6 8 8 8 8 8 7 7 6 5 4 3 2 3 3 3 3 3 3 4 5 5 4 5 5 5 4 4 4 3 2 3 3 3 3
5 4 3 6 4 5 3 3 3 3 4 5 5 5 7 8 8 8 8 8 8 7 7 6 5 4 3 3 3 3 3 3 4 4 5 4 4 4 5 5 4 4 3 3 3 3 3 3 3
3 2 4 5 5 5 3 5 2 2 3 5 6 7 7 7 8 8 8 8 8 7 6 6 5 4 3 3 3 2 3 3 4 5 5 5 5 5 5 4 4 3 2 2 2 3 2 3 2
6 5 5 4 5 6 5 2 1 2 2 4 5 6 7 8 9 9 8 8 8 7 7 6 6 5 3 3 3 3 2 3 3 3 4 4 4 4 4 4 4 4 3 2 1 2 2 3 3
5 5 7 6 5 5 7 4 2 3 4 4 5 5 6 7 8 8 9 9 8 8 8 7 6 5 4 3 3 3 3 3 3 3 3 4 4 4 4 4 3 3 3 3 2 2 2 2 3
Wind_Direction
161 167 195 225 231 218 110 81 61 84 76 57 49 46 43 33 15 53 78 101 111 119 122 132 122 114 111 100 66 18 353 333 302 275 248 243 241 240 243 242 245 246 249 250 253 257 260 266 276
156 166 215 238 246 184 110 93 93 67 88 91 75 68 71 69 54 78 94 101 111 112 115 101 89 71 62 48 31 360 348 339 321 308 291 272 261 259 260 258 254 250 250 251 252 254 258 263 269
155 202 242 238 239 4 97 98 92 98 102 86 82 59 48 68 74 87 98 115 114 107 107 92 74 65 57 40 28 14 357 341 325 322 316 299 283 273 268 264 258 255 254 256 257 255 253 257 263
183 213 231 239 177 87 81 109 118 128 118 86 111 98 85 62 70 98 115 123 117 108 101 91 74 73 66 54 43 26 7 356 336 325 321 315 301 287 278 271 264 261 260 257 256 253 251 253 254
222 247 234 209 145 121 129 122 147 149 117 116 124 103 99 94 104 117 122 123 118 110 99 92 74 58 53 45 35 15 5 348 329 318 319 317 308 293 285 280 274 268 265 263 262 259 251 249 248
219 244 250 212 138 140 147 159 165 140 122 131 137 116 102 121 128 126 125 122 112 109 105 96 92 66 51 34 20 9 0 347 332 319 313 311 303 291 282 275 272 271 272 270 266 264 260 254 249
251 253 273 280 159 155 141 157 178 156 142 129 138 121 123 141 137 136 132 125 115 111 102 85 83 96 95 58 26 9 360 351 343 335 317 306 299 291 289 277 267 266 271 271 267 263 261 254 250
265 262 250 241 199 143 137 156 148 187 115 109 165 139 132 148 148 145 140 135 127 117 100 80 63 33 16 46 60 16 7 359 348 341 335 312 264 245 252 261 263 268 265 268 269 261 261 258 251
238 246 244 217 198 138 157 171 147 147 141 143 152 63 107 138 153 157 157 156 146 128 96 59 31 26 9 354 32 341 350 356 299 274 280 274 277 277 244 274 294 284 275 265 260 256 256 256 239
221 250 250 160 202 142 170 185 161 175 175 167 153 136 136 154 167 170 172 168 161 147 104 43 7 5 357 349 345 330 331 341 324 331 322 302 306 302 299 162 240 262 262 246 241 250 247 245 240
219 250 238 182 182 175 176 182 186 200 201 191 169 157 160 168 174 178 180 175 161 147 114 11 344 356 348 345 337 336 331 333 323 332 324 306 301 289 287 289 233 241 251 258 229 234 236 236 237
221 236 242 201 166 194 191 177 194 218 210 127 152 155 165 176 179 183 186 180 174 179 182 358 333 338 343 344 342 320 326 333 333 334 331 319 313 305 310 296 309 296 280 282 274 260 244 241 239
220 211 207 209 203 207 196 197 214 220 198 164 158 167 176 181 181 182 185 185 190 189 209 338 328 335 342 349 324 324 335 333 333 332 322 325 313 309 309 296 302 295 296 280 274 269 261 249 241
202 202 209 211 202 199 205 209 218 212 178 174 176 181 184 185 188 186 191 197 201 200 209 246 317 336 327 328 326 340 333 326 321 328 325 323 318 312 309 300 300 300 299 298 286 274 269 259 246
181 200 204 203 203 191 208 222 219 196 179 184 187 186 187 191 195 202 200 202 204 202 210 280 316 324 325 330 336 332 325 326 326 328 324 324 319 313 309 308 306 304 297 288 284 284 277 264 247
194 212 214 178 194 186 223 237 164 175 191 196 195 189 195 199 207 207 201 203 198 204 211 199 310 316 330 329 320 324 328 332 326 324 322 322 319 316 312 307 307 308 302 294 285 278 274 268 260
203 221 220 177 189 198 228 254 136 176 202 205 201 200 202 201 208 203 200 202 201 207 212 225 315 318 330 330 312 320 324 330 324 326 330 323 319 315 312 311 309 310 303 296 292 289 284 278 272
203 221 227 218 172 212 233 252 219 190 217 221 211 210 208 210 203 195 195 198 199 205 208 207 257 314 337 328 320 327 323 324 326 330 333 328 318 316 311 300 303 306 297 294 291 291 281 280 276
223 237 250 268 167 231 248 259 256 219 219 224 218 215 215 211 193 183 185 188 194 195 206 191 269 353 339 343 328 329 334 329 330 334 336 322 316 315 308 302 305 303 300 298 293 291 277 268 275
236 248 256 253 154 246 267 270 264 235 229 232 232 220 213 203 190 181 186 184 196 189 198 211 234 348 350 357 331 327 324 320 332 327 330 331 327 321 307 303 299 293 289 286 287 283 286 277 259
234 248 261 278 222 223 275 265 239 206 217 221 229 230 217 201 199 185 187 184 186 188 189 193 243 197 5 343 323 313 307 290 314 334 338 336 330 325 313 307 303 298 289 285 281 274 269 275 261
232 249 252 250 253 245 263 284 246 195 215 215 213 209 206 195 197 187 186 186 186 180 179 193 181 250 14 306 323 332 326 333 341 333 333 328 332 331 321 307 300 298 295 285 274 266 259 258 257
239 84 226 247 260 265 235 268 247 176 219 199 196 198 197 192 191 187 187 185 181 170 175 188 186 219 302 314 328 304 320 330 329 327 331 327 341 336 327 316 308 304 296 289 284 279 266 253 257
151 166 168 211 246 255 256 264 271 174 200 166 172 182 188 185 183 184 179 180 177 170 175 184 200 195 242 278 282 302 324 321 324 329 333 330 336 335 341 325 311 304 297 283 276 269 259 258 255
207 228 227 219 222 252 120 259 270 56 282 250 206 178 179 179 181 181 180 183 180 180 183 190 200 209 228 265 282 307 314 311 317 325 331 327 332 339 343 331 318 314 303 288 273 263 257 249 249
210 245 271 290 292 299 209 248 289 90 249 248 230 198 183 182 185 184 184 185 184 185 187 197 204 215 228 261 286 300 304 299 319 321 320 323 329 332 331 325 322 315 306 292 269 269 258 251 247
191 217 313 294 291 278 247 256 269 187 214 206 199 192 191 187 186 187 185 187 186 187 189 196 203 212 223 251 273 288 304 307 313 311 315 320 320 321 324 323 324 323 311 297 273 256 258 252 246
318 157 205 251 281 282 276 269 267 207 203 195 200 200 193 187 188 188 186 188 188 187 187 191 203 214 219 242 259 285 297 301 307 312 323 324 324 325 323 325 333 332 323 307 285 267 270 256 242
173 195 231 253 281 290 298 314 20 274 245 222 210 205 197 193 191 188 186 187 185 185 187 191 197 208 218 233 245 261 279 294 297 309 321 323 324 325 327 335 336 338 341 334 303 276 259 255 250
248 240 230 258 253 261 287 298 111 239 249 241 233 212 202 198 193 189 186 183 186 191 193 196 200 202 206 225 241 262 279 278 288 307 317 323 329 331 333 339 339 349 344 337 331 311 275 255 257